FLOCK 2K-10 (42895 NORAD) Tracking and Keplerian Element Data

This shows tracking and keplerian element data for the satellite.

Feedback or suggestion? Click here.




ElementValue
Catalog42895
NameFLOCK 2K-10
Epoch Orbit23484
Epoch Day261.84506054
Epoch Year2021
RAAN110.2039
Inclination96.8413
Eccentricity0.0011186
Argument of Perigee77.4994
Mean Anonmoly282.7508
Mean Motion15.47615154
Decay Rate0.00017471
L11 42895U 17042BY 21261.84506054 .00017471 00000-0 33933-3 0 9990
L22 42895 96.8413 110.2039 0011186 77.4994 282.7508 15.47615154234846

Live tracking and technical data element details for FLOCK 2K-10 (NORAD 42895). FLOCK 2K-10 can be tracked NOW for your location showing map with azimuth and elevation plus other details from your city location.

Track the satellite on the map from your city or location and see movement details for azimuth, elevation, latitude, longitude, range, height, and movement on the map or in text.







IsCatalogInMostPopularTable: catalog: 42895, numindb: 536
Update: records affected: 1



GetName: 42895 FLOCK 2K-10

Hit Count: updated at: Fri, 24 Sep 2021 19:06:25 GMT